Date,TemperatureHighF,TemperatureAvgF,TemperatureLowF,DewpointHighF,DewpointAvgF,DewpointLowF,HumidityHigh,HumidityAvg,HumidityLow,PressureMaxIn,PressureMinIn,WindSpeedMaxMPH,WindSpeedAvgMPH,GustSpeedMaxMPH,PrecipitationSumIn
2013-1-1,80,66,56,50,30,14,66,32,10,30.19,30.02,6,0,6,0.16
2013-1-2,81,69,63,56,43,22,68,43,12,30.05,29.99,6,1,6,0.00
2013-1-3,74,66,60,61,53,36,82,66,26,30.16,30.02,8,0,8,0.16
2013-1-4,62,60,57,56,48,37,85,68,43,30.25,30.14,6,0,6,0.16
2013-1-5,75,64,57,50,32,14,73,36,11,30.28,30.16,6,0,6,0.16
2013-1-6,80,68,62,61,47,28,80,52,17,30.19,30.05,6,0,6,0.00
2013-1-7,66,64,60,60,49,27,81,60,25,30.19,30.11,7,0,7,0.00
2013-1-8,85,71,62,62,40,17,86,42,8,30.19,30.08,0,0,0,0.00
2013-1-9,87,75,68,65,40,16,80,38,8,30.25,30.14,0,0,0,0.00
2013-1-10,86,74,68,65,39,15,82,38,8,30.28,30.19,0,0,0,0.00
2013-1-11,87,70,66,55,41,15,61,40,8,30.25,30.11,5,0,5,0.00
2013-1-12,87,73,66,54,38,17,62,34,8,30.16,30.08,5,0,5,0.00
2013-1-21,61,61,60,28,28,26,29,29,27,30.08,30.08,4,0,4,0.00
2013-1-22,67,60,51,28,12,2,29,16,10,30.28,30.08,10,1,10,0.30
2013-1-23,73,58,48,20,7,1,30,13,9,30.34,30.25,9,0,9,0.00
2013-1-24,74,58,47,32,21,7,50,28,8,30.31,30.22,10,1,10,0.58
2013-1-25,79,61,51,44,23,6,58,29,7,30.31,30.19,6,0,6,0.00
2013-1-26,77,67,51,43,23,9,57,23,8,30.28,30.16,8,1,8,0.00
2013-1-27,83,66,55,54,26,8,73,29,7,30.28,30.19,6,0,6,0.00
2013-1-28,85,71,63,50,33,15,62,30,8,30.31,30.19,4,0,6,0.00
2013-1-29,87,72,63,55,36,16,68,33,8,30.22,30.08,8,1,8,0.30
2013-1-30,83,72,67,46,37,17,46,33,9,30.08,29.96,10,2,10,0.00
2013-2-12,72,71,69,54,51,46,54,48,43,30.08,29.96,6,2,8,0.00
2013-2-13,81,72,61,62,47,27,73,43,20,29.99,29.84,12,2,13,0.00
2013-2-14,64,62,60,53,46,34,76,56,33,30.05,29.90,6,0,7,0.28
2013-2-15,68,60,58,54,38,12,80,49,12,30.08,29.96,6,0,6,0.04
2013-2-16,68,58,52,34,16,4,43,22,10,30.14,29.93,10,2,12,0.00
2013-2-17,56,48,42,5,1,-2,16,14,12,30.34,30.14,8,2,13,0.00
2013-2-18,74,54,38,16,6,-3,30,15,8,30.34,30.19,5,0,5,0.00
2013-2-19,78,63,55,42,23,13,43,24,10,30.19,30.08,8,1,8,0.00
2013-2-20,78,67,60,56,35,15,75,37,10,30.11,30.02,5,0,5,0.00
2013-2-21,85,69,60,43,32,15,51,29,8,30.11,29.99,8,0,8,0.00
2013-2-22,84,72,64,52,38,17,58,33,9,30.08,29.99,10,1,10,0.00
2013-2-23,80,73,70,57,49,37,63,44,22,29.99,29.90,9,1,9,0.00
2013-2-24,70,70,70,63,63,57,78,77,63,29.93,29.87,4,0,4,0.00
2013-2-25,70,70,70,63,63,63,78,78,78,29.90,29.90,0,0,0,0.00
2013-2-26,72,70,66,63,47,30,78,48,22,29.90,29.78,4,0,4,0.00
2013-2-27,74,65,59,42,28,11,48,27,11,29.99,29.87,7,1,7,0.00
2013-2-28,73,62,54,40,21,8,48,24,9,29.99,29.90,8,1,8,0.00
2013-3-1,64,57,53,27,10,4,36,16,11,30.02,29.93,8,1,8,0.00
2013-3-2,60,54,49,22,5,2,35,14,12,30.08,29.99,7,2,8,0.00
2013-3-3,54,48,44,5,1,-1,15,14,13,30.16,29.99,8,2,8,0.00
2013-3-4,70,53,42,16,4,-2,27,14,10,30.22,30.14,6,1,6,0.00
2013-3-5,75,60,44,43,22,9,44,27,8,30.16,30.02,6,1,6,0.00
2013-3-6,66,66,66,44,40,39,46,39,37,30.05,29.96,8,2,8,0.00
2013-3-7,67,53,45,21,6,0,34,15,10,30.22,30.14,7,1,8,0.00
2013-3-8,75,58,46,33,17,4,54,25,8,30.22,30.11,6,0,6,0.00
2013-3-9,74,62,50,32,16,7,42,19,8,30.22,30.14,6,0,6,0.00
2013-3-10,77,62,58,34,25,9,39,26,10,30.16,30.08,5,0,5,0.00
2013-3-11,79,66,61,37,29,9,40,28,8,30.05,29.90,8,1,8,0.00
2013-3-12,69,64,57,58,35,14,70,36,15,30.05,29.87,7,1,7,0.43
2013-3-13,72,60,56,30,15,5,36,19,9,30.19,30.05,10,2,10,0.00
2013-3-14,66,57,51,27,8,2,33,14,10,30.28,30.16,10,2,10,0.00
2013-3-15,72,57,46,29,13,4,43,20,9,30.28,30.16,7,0,7,0.00
2013-3-16,54,51,50,28,23,11,42,34,18,30.19,30.11,0,0,0,0.00
2013-3-27,59,50,45,15,3,0,27,14,12,30.31,30.22,11,2,11,0.00
2013-3-28,46,46,46,22,20,14,39,36,27,30.25,30.22,0,0,0,0.00
2013-3-29,76,61,49,32,15,6,46,20,8,30.31,30.19,6,0,6,0.00
2013-3-30,77,63,52,35,19,8,42,21,8,30.25,30.14,4,0,4,0.00
2013-3-31,61,60,60,36,34,30,41,37,31,30.16,30.11,0,0,0,0.00
2013-4-1,60,60,60,34,34,34,37,37,37,30.11,30.11,0,0,0,0.00